Dewpoint
32 27 26 27 28 22 19 21 18 20 23 28 28 27 27 28 36 36 36 36 35 34 34 34 34 34 31 27 25 26 28 29 29 30 30 30 30 30 32 33 33 31 33 34
30 28 26 29 30 29 27 22 21 23 24 27 26 26 28 28 32 31 34 35 35 35 35 35 34 33 31 27 25 26 27 28 29 31 30 29 29 30 31 34 33 33 32 33
28 26 32 29 27 27 26 24 22 19 23 26 26 24 26 28 29 31 33 32 33 34 34 34 34 33 31 27 25 25 26 27 29 30 32 31 32 32 33 33 33 32 32 33
29 29 27 29 28 27 22 28 27 25 24 22 25 17 18 24 26 28 29 30 33 34 34 34 34 33 31 28 26 25 27 26 29 31 31 30 31 29 31 32 32 32 31 30
25 27 28 30 25 28 27 28 29 29 25 25 23 20 23 22 21 21 21 26 29 31 34 33 33 34 32 30 25 25 27 27 28 30 31 31 30 30 31 31 30 30 30 30
24 28 28 27 28 29 29 27 29 30 26 21 21 21 17 14 19 19 20 21 22 25 30 34 33 34 33 30 27 26 26 27 29 30 31 30 30 31 31 31 31 31 31 32
21 23 27 24 24 29 27 23 22 20 22 19 20 20 17 16 19 19 19 19 19 21 28 34 33 34 32 30 28 27 27 28 29 29 30 30 30 30 30 31 31 31 31 31
21 19 22 25 23 23 26 23 21 17 17 14 23 20 16 20 21 21 20 19 20 23 33 34 34 34 30 28 27 28 27 27 28 29 30 30 30 32 32 31 32 31 32 31
21 21 25 25 25 25 23 24 24 20 19 17 16 20 20 23 24 24 23 23 24 24 33 34 34 33 30 26 26 27 27 27 28 28 29 29 30 32 32 31 30 32 31 32
29 25 26 27 27 27 24 26 22 23 18 17 17 16 16 17 16 17 21 22 24 27 32 34 34 33 30 26 26 27 27 27 27 28 28 28 28 29 30 30 30 31 31 31
40 34 33 31 29 28 27 25 25 24 23 19 17 18 19 18 19 18 18 18 22 24 30 34 34 33 31 28 27 26 26 26 27 27 28 28 28 27 27 27 29 30 30 30
41 40 34 34 35 33 30 25 28 26 25 25 21 20 19 18 19 19 19 20 22 27 31 34 34 32 31 28 28 27 27 26 27 28 28 28 27 26 24 25 25 27 27 29
39 36 29 26 30 34 34 31 31 32 33 31 26 25 27 31 32 34 29 22 23 25 31 35 34 33 30 28 27 27 27 27 28 28 28 28 27 25 23 23 24 25 25 26
36 35 32 27 30 31 29 29 29 30 28 26 27 28 27 28 30 34 34 31 23 23 29 34 34 33 32 29 27 28 28 28 29 29 28 28 26 25 24 23 24 25 25 25
34 27 26 25 25 25 25 29 29 27 28 27 22 19 21 24 33 36 37 37 36 32 25 32 34 33 33 32 29 28 28 29 29 29 29 28 27 25 24 25 25 25 26 26
32 27 26 24 24 24 23 23 24 27 24 23 26 29 32 32 39 37 37 37 37 35 34 27 32 33 32 32 31 29 29 29 29 29 29 28 27 25 24 25 25 25 26 26
26 26 24 22 23 22 21 21 20 21 22 23 26 31 38 38 36 35 35 36 36 38 39 39 33 33 32 32 32 31 30 30 29 28 28 27 25 24 24 25 26 25 25 26
26 25 27 24 25 18 22 24 26 26 25 30 35 39 38 35 36 35 34 36 37 39 41 42 41 35 34 32 32 31 30 29 28 27 26 25 24 24 24 25 25 25 26 27
28 27 26 19 18 20 21 23 26 27 28 38 31 32 36 36 37 32 34 37 40 42 43 42 41 39 33 32 32 30 28 28 27 25 24 23 23 23 24 24 24 26 27 27
27 30 25 22 19 16 21 23 30 29 25 32 25 32 32 36 32 31 36 39 42 42 42 40 33 32 32 32 30 28 27 26 25 23 23 22 22 23 24 24 25 27 27 27
22 24 22 20 18 20 23 29 33 21 23 27 30 33 33 35 36 36 40 42 43 41 42 39 32 32 32 29 28 27 25 25 24 23 22 22 22 23 23 25 27 27 27 27
22 18 18 18 16 15 31 26 24 28 32 31 31 30 34 36 37 39 41 43 43 41 42 36 32 31 28 26 26 25 24 24 23 23 23 22 22 22 25 26 27 26 27 26
22 24 22 24 23 25 25 28 30 32 32 30 30 33 32 32 33 37 38 43 42 42 42 33 28 25 25 25 25 23 23 23 23 22 22 22 23 25 26 26 26 26 26 26
25 27 28 29 27 27 28 28 28 29 29 30 31 31 32 32 33 30 33 43 43 43 44 29 26 24 23 23 22 23 23 24 22 22 23 24 24 26 26 26 26 26 26 27
27 28 27 29 29 29 28 28 28 28 29 30 30 32 32 31 31 33 37 43 44 45 45 33 31 25 24 24 23 24 24 23 22 22 24 25 26 27 26 27 26 26 26 28
30 28 28 27 26 28 27 28 29 29 29 29 29 29 30 31 32 32 34 43 45 46 46 40 29 32 25 24 24 26 26 24 23 22 24 25 27 29 28 27 28 34 35 38
Lifted_Index
8 7 5 6 6 7 6 5 5 5 6 6 6 6 6 7 9 9 9 9 9 9 10 10 10 10 10 11 11 12 12 12 12 13 13 13 13 13 13 13 14 16 18 19
7 7 6 7 7 7 6 5 5 5 6 6 7 6 7 7 8 9 9 9 9 9 9 10 10 10 10 10 11 11 12 12 12 12 13 13 13 13 13 13 14 16 18 19
7 7 7 7 7 7 6 5 5 5 6 6 6 6 6 7 7 8 8 8 8 8 8 9 9 10 10 10 10 11 11 12 12 12 12 13 13 13 13 13 14 16 18 19
8 7 7 7 7 7 6 6 6 6 6 6 6 5 6 7 7 6 6 7 7 7 7 8 9 9 9 9 10 10 11 11 11 12 12 12 12 12 12 13 14 16 18 19
8 8 8 8 7 8 7 7 7 7 7 6 6 5 5 6 6 6 6 6 7 7 7 8 8 8 8 8 9 9 10 10 11 11 11 12 12 12 13 13 13 15 17 19
9 9 9 8 8 8 8 7 7 6 5 5 5 5 5 6 7 7 6 6 7 7 7 7 8 7 8 8 8 8 9 10 10 11 11 12 12 12 12 12 13 15 17 18
8 8 8 9 8 8 7 6 5 3 3 3 4 5 5 7 8 8 7 7 6 6 7 7 7 6 6 6 7 7 8 9 9 10 11 11 12 13 13 13 13 15 17 18
6 7 8 9 8 7 7 6 4 2 2 3 4 5 6 8 9 8 8 7 6 6 5 6 5 5 5 5 6 6 7 8 8 9 10 11 12 13 13 13 14 15 17 18
7 7 8 9 8 7 7 6 4 3 2 3 4 5 7 8 8 8 7 6 6 5 4 5 5 5 4 5 5 6 6 7 8 9 10 11 12 13 13 13 14 16 18 18
7 7 9 9 9 7 6 5 4 3 2 2 3 5 6 7 7 6 6 6 5 5 4 4 4 4 4 4 5 6 6 7 8 9 10 11 12 13 13 14 15 16 18 18
8 8 8 8 8 7 6 4 2 1 0 1 2 4 6 6 6 5 5 5 5 4 4 4 4 4 4 4 5 6 6 7 8 8 9 11 12 13 13 14 15 16 18 19
8 8 8 8 7 6 5 3 1 0 -0 0 1 3 5 5 5 5 5 5 4 4 3 3 3 3 3 4 5 6 6 7 8 8 10 11 12 13 13 14 15 17 18 19
8 8 7 7 7 6 4 3 1 1 0 -0 1 2 4 4 4 4 5 4 4 3 3 3 3 3 2 3 4 5 6 7 7 8 9 11 12 12 13 14 15 17 18 18
8 7 6 6 6 5 5 3 3 3 2 1 2 2 3 4 4 4 5 5 4 4 3 3 2 2 2 2 3 5 6 6 7 8 9 10 11 12 13 14 15 16 17 18
7 6 5 5 5 4 4 3 3 4 4 4 4 4 4 4 5 5 4 4 4 4 3 3 3 3 3 3 3 4 5 6 7 8 9 10 11 12 13 14 15 16 17 18
5 4 3 3 3 3 2 3 3 3 4 4 4 4 5 5 5 4 4 4 3 3 3 3 3 3 3 3 3 4 5 6 7 8 9 10 11 12 13 14 15 16 17 18
2 2 1 1 1 1 1 2 2 2 2 2 2 3 3 4 5 5 4 4 3 3 3 3 3 3 3 3 3 4 5 6 7 8 9 9 10 11 13 14 15 16 17 18
1 1 0 0 0 1 1 1 0 0 -0 -0 0 1 2 4 5 6 5 5 4 4 3 3 3 3 3 3 4 4 5 6 7 7 8 9 10 11 13 14 15 16 17 18
0 0 -0 0 0 0 1 1 0 -0 -1 -0 1 2 2 3 5 6 6 6 5 5 5 4 3 2 2 3 4 4 5 6 7 7 8 9 10 12 13 14 15 16 17 18
0 0 0 0 0 1 1 1 0 0 0 1 2 2 2 2 4 5 6 6 6 6 6 5 4 2 2 2 3 4 5 5 6 7 8 10 11 12 13 14 15 17 17 18
1 1 1 0 0 1 1 1 0 0 1 1 2 2 2 2 3 4 5 6 6 6 7 6 4 2 2 1 2 3 5 5 6 7 9 10 11 12 13 15 16 17 17 18
1 1 1 1 1 1 1 0 0 1 1 2 2 2 2 2 3 3 4 5 6 7 7 7 5 3 2 2 2 3 5 6 7 8 10 11 12 13 14 15 16 17 17 18
1 1 1 1 1 1 1 1 1 1 1 2 2 3 3 3 3 3 3 5 6 7 7 7 6 4 3 3 4 4 5 6 8 9 10 11 12 14 15 16 17 17 17 18
2 1 1 1 1 1 1 1 1 1 1 2 2 2 2 3 3 3 3 4 5 6 7 8 7 6 5 5 5 6 7 8 9 10 11 12 13 15 16 16 17 17 17 17
1 1 0 0 1 1 1 1 1 1 1 1 2 2 2 2 3 3 3 3 4 5 7 8 8 7 7 7 7 8 9 9 10 11 12 13 14 16 16 17 17 17 17 17
1 1 0 0 1 1 1 1 1 1 1 1 1 1 1 2 2 3 2 2 4 5 6 8 8 8 8 8 9 9 10 11 11 12 13 14 15 16 17 17 17 17 17 17